COSMOS 886 DEB, 9721

Orbit data source: Space-Track

COSMOS 886 DEB, 9721 is space debris in LEO originally from a launch on Mon, 27 Dec 1976 UTC launched from the Tyuratam Missile And Space Complex (TTMTR). Debris objects in space refer to the collection of defunct objects orbiting the Earth. Examples of debris include non-operational satellites, rocket bodies, and fragments generated from explosions, collisions, or faulty payload assembly.

Loading next visibility...
Identifier
9721, 1976-126S
Orbit
LEO
Country
Flag of CISCIS
Related business
Manufacturer
Unknown
Mission
Spacecraft
Bus & Motor
Unknown
Mass
Unknown
Launch date (UTC)
1976-12-27 (49 years ago)
Launch vehicle
Unknown
Launch site
Tyuratam Missile And Space Complex (TTMTR)
Object type
Payload
Rocket body
Debris
Shape & HBR
Unknown shape, 0.2 m
Radar Cross Section
Medium (>0.1 m² and <1 m²)

Expand to show TLE details & history
Last TLE update: 17 hours ago

TLE from 17 hours ago
0 COSMOS 886 DEB
1 09721U 76126S   26175.07614100  .00000253  00000-0  12236-3 0  9998
2 09721  65.8440  70.0800 1061510   8.0559 353.6081 12.77435227297244
Epoch: 2026-06-24T01:49Z
TLE epoch observation values (Epoch: 2026-06-24T01:49:38.582Z)
Latitude
-0.00001°
Longitude
130.43069°
Altitude
539.464 km
Speed
7.983 km/s
True Right ascension
04h 40m 19s
True Declination
0° 00' 00"
Sunlit
Object was in daylight at epoch
Visualization orbit readout
Latitude
Unknown
Longitude
Unknown
Altitude
Unknown
Speed
Unknown
Apparent Right ascension
Unknown
Apparent Declination
Unknown
Sunlit
N/A
Visualization observer readout
Local Sidereal Time
06:16:49
Azimuth
Unknown
Elevation
Unknown
Doppler factor
Unknown
Orbital elements
Apogee altitude
2,170.75 km
Perigee altitude
529.974 km
Semi-major axis
7,728.499 km
Eccentricity
0.10615
Inclination
65.844°
RAAN
70.08°
Arg. of periapsis
8.0559°
True anomaly
352.04988°
Mean anomaly
353.6081°
Eccentric anomaly
352.85122°
Mean motion
3.19448 °/min
Orbital period
112.69 mins
BSTAR
0.00012236
Loading maneuver chart data...
Computing Atmospheric mass density...

Documentation

Showing up to 5 results
|